Regional Weather Roundup
Issued by NWS

Home | Current Version | Previous Version | Graphics & Text | Print | Product List | Glossary Off
Versions: 1 2 3 4 5 6 7 8 9 10 11 12 13 14 15 16 17 18 19 20 21 22 23 24 25 26 27 28 29 30 31 32 33 34 35 36 37 38 39 40 41 42 43 44 45 46 47 48 49 50

000
ASUS43 KMPX 041001
RWRMN
WEATHER ROUNDUP FOR MINNESOTA
NATIONAL WEATHER SERVICE TWIN CITIES/CHANHASSEN MN
500 AM CDT TUE AUG 04 2015


NOTE: "FAIR" INDICATES FEW OR NO CLOUDS BELOW 12,000 FEET WITH NO
SIGNIFICANT WEATHER AND/OR OBSTRUCTIONS TO VISIBILITY. N/A MEANS
CURRENT SKY AND/OR WEATHER CONDITIONS ARE NOT AVAILABLE.

MNZ060>063-068>070-041100-
   Twin Cities Metro

CITY           SKY/WX    TMP DP  RH WIND       PRES   REMARKS
TWIN CITIES    CLEAR     60  54  80 CALM      29.94F
ST PAUL        CLEAR     60  56  86 CALM      29.95F
CRYSTAL        CLEAR     56  52  86 CALM      29.93F
BLAINE         CLEAR     55  54  94 CALM      29.94F
LAKEVILLE      CLEAR     52  52 100 CALM      29.94F
EDEN PRAIRIE   CLEAR     59  55  87 CALM      29.93F
SOUTH ST PAUL  CLEAR     60  53  79 CALM      29.94F
LAKE ELMO      FAIR      52  52 100 CALM      29.96F
$$
MNZ001>005-007-008-013>017-022>024-027-028-041100-
   Northwest Minnesota

CITY           SKY/WX    TMP DP  RH WIND       PRES   REMARKS
BEMIDJI        CLEAR     46  42  87 W5        29.95S
HALLOCK        CLEAR     48  46  93 CALM      29.97R
ROSEAU         PTCLDY    54  48  82 CALM      29.96S
WARROAD        CLEAR     54  48  82 NW6       29.96S
THIEF RVR FALL CLEAR     55  48  76 CALM      29.96S
CROOKSTON      CLEAR     50  46  87 CALM      29.96S
FOSSTON        CLEAR     46  46 100 CALM      29.96S
DETROIT LAKES  CLEAR     54  52  94 NE3       29.96S
MOORHEAD       CLEAR     50  46  87 CALM      29.96S
PARK RAPIDS    CLEAR     49  45  86 CALM      29.95F
MAHNOMEN       FAIR      53  49  89 SE3       29.95S
$$
MNZ006-009>011-018-025>026-041100-
   North Central Minnesota

CITY           SKY/WX    TMP DP  RH WIND       PRES   REMARKS
BAUDETTE       CLEAR     51  49  92 W3        29.94R
FLAG ISLAND    CLOUDY    59  52  77 NW10      29.94R
INTL FALLS     CLOUDY    50  49  96 CALM      29.93R
WASKISH        CLEAR     55  52  88 NW5       29.95R
BIG FORK       CLEAR     45  43  93 CALM      29.94S FOG
LONGVILLE      CLEAR     46  46 100 CALM      29.94F
GRAND RAPIDS   CLEAR     50  46  87 CALM      29.94S VSB 1
CRANE LAKE     PTCLDY    48  48 100 S1        29.93R
ORR            CLEAR     48  46  93 CALM      29.90S
COOK           CLEAR     46  46 100 CALM      29.93S FOG
WALKER         FAIR      49  47  91 CALM      29.95S
$$
MNZ012-019>021-037-041100-
   Northeast Minnesota

CITY           SKY/WX    TMP DP  RH WIND       PRES   REMARKS
DULUTH         PTCLDY    54  49  83 NW6       29.92S
ELY            MOCLDY    48  46  93 CALM      29.92R
HIBBING        CLEAR     47  45  93 CALM      29.93S
EVELETH        CLEAR     52  50  93 NW3       29.93S
DULUTH HARBOR  CLEAR     61  54  77 W13       29.91S
TWO HARBORS    CLEAR     55  50  82 NW3       29.89S
SILVER BAY     CLEAR     55  52  88 CALM      29.89R
GRAND MARAIS     N/A     54  52  93 CALM      29.87R
G MARAIS ARPRT CLEAR     50  46  87 CALM      29.89R
$$
MNZ029>031-032-039>041-046>048-054>057-064-041100-
   West Central Minnesota

CITY           SKY/WX    TMP DP  RH WIND       PRES   REMARKS
FERGUS FALLS   CLEAR     52  52 100 CALM      29.96S
WHEATON        CLEAR     46  45  93 CALM      29.96F
MORRIS         CLEAR     52  48  87 CALM      29.95S
ALEXANDRIA     CLEAR     54  50  86 CALM      29.96F
ELBOW LAKE     FAIR      56  55  94 CALM      29.95F
WADENA         CLEAR     46  45  93 CALM      29.95S
GLENWOOD       CLEAR     54  52  94 W5        29.96S
APPLETON         N/A     52  48  87 CALM      29.94F
BENSON         CLEAR     48  46  93 CALM      29.96R FOG
ORTONVILLE     CLEAR     54  48  82 CALM      29.94F
MADISON        CLEAR     52  48  87 CALM      29.95F
WILLMAR        FAIR      48  46  93 CALM      29.96S
$$
MNZ033>034-036-042>043-049>051-058-059-041100-
   Central Minnesota

CITY           SKY/WX    TMP DP  RH WIND       PRES   REMARKS
ST CLOUD       CLEAR     50  49  96 NE3       29.94F
SAUK CENTRE    FAIR      48  47  97 CALM      29.95S
PAYNESVILLE    CLEAR     46  46  99 CALM      29.95F
AITKIN         CLEAR     48  43  81 CALM      29.93S
PINE RIVER     CLEAR     46  45  93 CALM      29.98F
BRAINERD       CLEAR     49  48  97 CALM      29.95F
STAPLES        CLEAR     48  46  93 CALM      29.96S
LONG PRAIRIE   FAIR      50  46  87 CALM      29.95F
LITCHFIELD     CLEAR     55  54  94 CALM      29.95F
BUFFALO        CLEAR     53  49  87 CALM      29.95F
MAPLE LAKE     CLEAR     52  50  93 CALM      29.95F
$$
MNZ037-044-045-052-053-041100-
   East Central Minnesota

CITY           SKY/WX    TMP DP  RH WIND       PRES   REMARKS
PRINCETON      CLEAR     50  48  93 CALM      29.95S FOG
MORA           CLEAR     50  50 100 CALM      29.96F
CAMBRIDGE      CLEAR     54  46  76 CALM      29.93S HAZE
RUSH CITY      MOCLDY    51  50  95 CALM      29.94F
MOOSE LAKE     CLEAR     50  50 100 CALM      29.92S
HINCKLEY       FAIR      50  50 100 W3        29.94S
CLOQUET        CLEAR     52  48  87 W6        29.93S
MCGREGOR         N/A     45  43  93 CALM      29.95R VSB 1/4
$$
MNZ071>073-080-081-089-090-097-098-041100-
   Southwest Minnesota

CITY           SKY/WX    TMP DP  RH WIND       PRES   REMARKS
MONTEVIDEO     CLEAR     52  46  82 CALM      29.97F
GRANITE FALLS  CLEAR     49  48  95 CALM      29.98S
CANBY          CLEAR     53  50  92 CALM      29.98R
MARSHALL       CLEAR     52  46  82 SW3       29.98R
REDWOOD FALLS  CLEAR     55  51  86 CALM      29.95F
OLIVIA         CLEAR     46  43  87 CALM      29.95S
PIPESTONE      CLEAR     57  52  82 SE3       29.99R
WINDOM         CLEAR     52  48  87 CALM      29.99R
WORTHINGTON    CLEAR     54  48  82 CALM      30.00R
JACKSON        CLEAR     54  54 100 CALM      29.99R
TRACY          CLEAR     57  54  88 SW3       29.98S
SLAYTON        CLEAR     53  51  92 CALM      30.00S
$$
MNZ065>067-074>077-082>085-091>093-041100-
   South Central Minnesota

CITY           SKY/WX    TMP DP  RH WIND       PRES   REMARKS
MANKATO        CLEAR     57  52  82 NE3       29.95F
NEW ULM        CLEAR     52  48  87 CALM      29.96S
ST JAMES         N/A     52  50  93 CALM      29.99R
FAIRMONT       CLEAR     55  48  76 CALM      29.97S
GLENCOE        CLEAR     51  50  95 CALM      29.94F
FARIBAULT      CLEAR     52  48  87 CALM      29.96S
OWATONNA       CLEAR     50  48  93 S3        29.97S
WASECA         CLEAR     52  50  93 NE3       29.97F
ALBERT LEA     CLEAR     54  52  94 CALM      29.97F
$$
MNZ078>079-086>088-094>096-041100-
   Southeast Minnesota

CITY           SKY/WX    TMP DP  RH WIND       PRES   REMARKS
ROCHESTER      CLEAR     53  50  89 W7        29.97S
RED WING       CLEAR     54  52  94 N3        29.93F
STANTON        CLEAR     52  50  92 CALM      29.94S
DODGE CENTER   PTCLDY    52  48  87 W6        29.97S
WINONA         CLEAR     55  54  94 CALM      29.94S
AUSTIN         CLEAR     57  52  82 CALM      29.96S
PRESTON        CLEAR     55  51  85 NW5       29.97R
$$
ABBREVIATIONS USED IN REMARKS
   TC - TEMPERATURES IN CELSIUS
  WCI - WIND CHILL INDEX
   HX - HEAT INDEX
  VSB - VISIBILITY
$$


USA.gov is the U.S. government's official web portal to all federal, state and local government web resources and services.